Regional Weather Roundup
Issued by NWS Nashville, TN

Home | Current Version | Previous Version | Text Only | Print | Product List | Glossary On
Versions: 1 2 3 4 5 6 7 8 9 10 11 12 13 14 15 16 17 18 19 20 21 22 23 24 25 26 27 28 29 30 31 32 33 34 35 36 37 38 39 40 41 42 43 44 45 46 47 48 49 50
000
ASUS44 KOHX 300015
RWROHX
MIDDLE TENNESSEE HOURLY WEATHER ROUNDUP
NATIONAL WEATHER SERVICE NASHVILLE TN
700 PM CDT TUE JUL 29 2014

NOTE: "FAIR" INDICATES FEW OR NO CLOUDS BELOW 12,000 FEET WITH
NO SIGNIFICANT WEATHER AND/OR OBSTRUCTIONS TO VISIBILITY.

* THESE REPORTS ARE NOT UNDER NWS QUALITY CONTROL AND MAY NOT
  REPORT WEATHER SUCH AS PRECIPITATION AND FOG.


TNZ005>011-023>034-057-059-062>066-078-080-300100
...NORTHERN MIDDLE TENNESSEE...

CITY           SKY/WX    TMP DP  RH WIND       PRES   REMARKS
CLARKSVILLE    SUNNY     76  51  41 N12       30.07F
CROSSVILLE     CLEAR     69  52  54 N6        30.11S
DICKSON        SUNNY     73  52  46 NW6       30.08F
LEBANON        CLEAR     75  52  44 N7        30.06S
LIVINGSTON       N/A     69  53  56 N5        30.09S
NASHVILLE      PTCLDY    77  52  41 N12       30.06F
WEST NASHVILLE   N/A     75  50  41 N9        30.06F
PORTLAND       PTCLDY    73  54  49 N8        30.07S
SMYRNA         PTCLDY    76  54  46 N9        30.07S
SPARTA         CLEAR     72  57  60 CALM      30.08S
$$
TNZ056-058-060-061-075>077-079-093>097-300100
...SOUTHERN MIDDLE TENNESSEE...

CITY           SKY/WX    TMP DP  RH WIND       PRES   REMARKS
COLUMBIA       CLEAR     75  54  46 CALM      30.06F
FAYETTEVILLE   CLEAR     72  52  49 N8        30.07F
LEWISBURG      CLEAR     75  53  46 NW3       30.07S
MCMINNVILLE    CLEAR     72  57  60 N3        30.08S
MURFREESBORO   CLEAR     76  54  46 NE7       30.06S
SHELBYVILLE    CLEAR     73  57  56 N3        30.07F
TULLAHOMA      CLEAR     72  54  53 N5        30.08F
WINCHESTER     CLEAR     72  55  56 N6        30.08S
$$


...KEY TO REMARKS...
VSB - VISIBILITY IN MILES
WCI - WIND CHILL INDEX
HX  - HEAT INDEX



USA.gov is the U.S. government's official web portal to all federal, state and local government web resources and services.